Location: The Saddle
(36.8333°N, 80.3417°W)
Time: 13:13:34
(UTC-05:00)

A-11 Canister half - Pass Details

Date: 18 December 2023
Orbit: 1526 x 1682 km, 47.3° (Epoch: 22 February)

Event Time Altitude Azimuth Distance (km) Brightness Sun altitude
Rises 12:14:19 0° 165° (SSE) 4,809 12.7 29.8°
Reaches altitude 10° 12:21:28 10° 130° (SE) 3,874 11.7 29.8°
Maximum altitude 12:23:10 11° 120° (ESE) 3,841 11.6 29.8°
Drops below altitude 10° 12:24:52 10° 109° (ESE) 3,895 11.4 29.8°
Sets 12:32:05 0° 75° (ENE) 4,919 11.5 29.7°
